Location: Caribou
(46.8667°N, 68.0167°W)
Time: 04:52:18
(UTC-05:00)

Daily predictions for brighter satellites

Satellite Brightness Start Highest point End
(mag) Time Altitude Azimuth Time Altitude Azimuth Time Altitude Azimuth
SL-16 R/B 4.4 03:15:19 19° ESE 03:15:19 19° ESE 03:16:59 10° SE
Cosmos 2297 Rocket 4.0 03:23:33 27° NE 03:23:33 27° NE 03:26:20 10° NE
Cosmos 2227 Rocket 3.9 03:37:00 27° NE 03:37:00 27° NE 03:39:29 10° NNE
ATLAS 2AS CENTAUR R/B 4.4 03:41:15 25° N 03:43:48 29° NNE 03:50:33 10° ENE
ADEOS II 4.3 03:46:26 10° NNE 03:47:21 15° NNE 03:47:21 15° NNE
Cosmos 1725 Rocket 4.2 03:56:04 67° NE 03:56:04 67° NE 04:01:42 10° NNE
USA 234 3.9 04:06:25 10° E 04:12:37 47° NNE 04:14:08 40° NNW
Cosmos 1603 4.4 04:14:10 37° N 04:15:57 49° ENE 04:21:25 10° SE
NOSS 3-1 (C) 4.0 04:14:10 49° NNW 04:16:35 80° NE 04:24:51 10° SE
Cosmos 2151 3.9 04:22:40 47° E 04:22:40 47° E 04:26:30 10° SSE
Cosmos 1538 Rocket 3.9 04:32:59 73° NNW 04:33:32 90° SSW 04:38:54 10° SSE
COSMO-SKYMED 1 2.6 04:34:49 10° SSE 04:38:54 76° SE 04:38:54 76° SE
Ariane Rocket 4.3 04:37:12 10° NNE 04:42:01 40° E 04:46:48 10° SSE
Cosmos 2233 Rocket 3.9 04:35:54 10° S 04:42:09 82° W 04:48:31 10° N
CZ-4 R/B 4.5 04:42:52 10° NE 04:45:27 16° E 04:48:03 10° SE
SL-8 R/B 3.6 04:47:33 73° SW 04:47:45 74° SSW 04:52:33 10° ESE
Cosmos 220 Rocket 4.3 04:49:19 56° N 04:49:19 56° N 04:52:53 10° NNE
Genesis I 3.6 04:49:35 56° SSE 04:49:35 56° SSE 04:52:45 10° SSE
Cosmos 1680 Rocket 4.4 04:44:44 15° N 04:49:01 47° ENE 04:54:09 10° SE
SL-16 R/B 3.2 04:57:16 29° SW 04:57:16 29° SW 05:00:44 10° S
Cosmos 2346 Rocket 4.4 04:50:14 10° NNW 04:56:16 61° W 05:02:14 10° S
SeaSat 1 2.9 04:52:56 10° NNE 04:57:03 41° NW 04:57:03 41° NW
Sich 1 4.4 04:58:27 10° N 05:02:34 38° ENE 05:06:37 10° SE
Cosmos 2297 Rocket 2.8 05:05:23 34° NW 05:05:23 34° NW 05:10:19 10° NNE
DMSP B5D1-3 4.4 05:01:27 10° S 05:06:33 72° WSW 05:11:15 12° NNW
Cosmos 1633 Rocket 4.4 05:03:32 10° N 05:07:38 38° ENE 05:11:42 10° SE
Cosmos 968 Rocket 3.5 05:06:47 27° SW 05:09:30 58° WNW 05:14:44 10° NNE
Coronas F rocket 3.4 05:14:07 17° NNE 05:15:19 24° ENE 05:17:22 10° SE
Cosmos 1703 3.2 05:13:11 14° N 05:16:34 82° E 05:20:30 10° S
ATLAS CENTAUR R/B 3.7 05:16:30 19° NNW 05:18:24 26° NNE 05:25:14 10° ENE
Cosmos 2227 Rocket 3.4 05:18:51 23° NW 05:18:51 23° NW 05:22:59 10° N
Cosmos 773 Rocket 4.1 05:17:12 26° NW 05:20:00 55° WSW 05:25:10 10° S
Cosmos 2112 Rocket 4.1 05:19:03 10° NNW 05:24:25 79° ENE 05:29:46 10° SSE
Meteor 1-28 Rocket 3.4 05:21:49 10° S 05:25:27 46° W 05:26:20 38° WNW
Meteor 1-11 4.4 05:20:12 10° NNW 05:25:49 50° W 05:31:23 10° SSW
Cosmos 2058 3.1 05:24:24 31° NW 05:25:53 46° W 05:29:51 10° SSW
Cosmos 1626 2.1 05:22:19 10° N 05:26:04 82° E 05:29:48 10° S
Meteor 1-16 Rocket 4.1 05:20:53 10° SSW 05:26:09 54° WNW 05:31:22 10° N
NOAA 6 4.3 05:22:03 10° N 05:26:57 43° WNW 05:31:50 10° SW
SKYMED 2 4.2 05:23:28 10° SSW 05:27:22 32° W 05:27:31 32° W
NOSS 3-1 (A) 4.1 05:22:15 21° NW 05:27:30 59° WSW 05:35:38 10° SSE
Meteor 2-12 Rocket 4.4 05:21:29 10° S 05:27:37 82° W 05:33:50 10° N
Cosmos 1271 Rocket 2.8 05:24:52 10° SSW 05:28:34 48° WNW 05:32:15 10° N
YAOGAN 1 4.5 05:25:25 10° NNE 05:29:20 32° E 05:33:14 10° SSE
ADEOS II 4.1 05:27:39 10° NNW 05:28:18 12° NNW 05:28:18 12° NNW
Cosmos 1464 Rocket 3.9 05:29:14 10° SSW 05:35:33 71° W 05:41:50 10° N
Cosmos 1340 Rocket 3.4 05:34:58 31° WNW 05:35:43 34° W 05:39:18 10° SSW
ATLAS 2AS CENTAUR R/B 3.4 05:28:41 12° NW 05:36:25 66° NE 05:44:03 10° SE
Cosmos 1943 3.2 05:31:26 11° NNW 05:37:03 87° WSW 05:42:45 10° SSE
Cosmos 292 Rocket 3.8 05:33:20 16° NNW 05:37:03 60° WSW 05:41:46 10° S
Cosmos 1184 Rocket 2.6 05:34:54 15° NNW 05:37:32 77° W 05:40:50 10° S
Cosmos 2221 2.5 05:35:36 10° SSW 05:39:50 55° WNW 05:44:06 10° N
Cosmos 1666 Rocket 3.5 05:36:09 10° N 05:40:38 81° W 05:45:06 10° S
SMAP 3.8 05:41:34 10° NNE 05:46:10 56° E 05:50:45 10° S
CSL-04 DEB 4.5 05:44:15 10° N 05:48:38 71° WNW 05:52:55 10° SSW
Cosmos 1356 Rocket 3.6 05:44:51 10° NNW 05:48:47 47° W 05:52:46 10° S
Cosmos 1777 Rocket 4.2 05:44:54 10° SW 05:49:57 49° WNW 05:55:01 10° NNE
CSL-04 Debris 4.1 05:45:40 10° NNE 05:51:11 75° WNW 05:56:37 10° SSW
Cosmos 1933 Rocket 4.4 05:47:48 10° N 05:52:12 52° ENE 05:56:31 10° SSE
Helios 1B rocket 2.7 05:50:08 10° SSE 05:54:12 69° ENE 05:58:19 10° N
USA 234 3.3 05:48:47 10° SE 05:55:22 83° SW 06:01:29 12° NW
Tiangong 2 3.6 05:55:20 10° SSW 05:57:40 19° SSE 06:00:01 10° ESE
SPOT 3 Rocket 4.2 05:52:51 10° NNE 05:58:01 59° ESE 06:03:10 10° S
Cosmos 2151 4.5 05:59:21 17° W 05:59:21 17° W 06:02:01 10° SW
IRS-1A Rocket 4.3 05:54:45 10° NNE 06:00:41 81° WNW 06:06:30 10° SSW
Cosmos 2263 Rocket 2.6 05:57:30 10° SSW 06:03:08 68° ESE 06:08:48 10° NNE
SJ-12 3.9 06:08:00 10° N 06:12:03 60° WNW 06:16:03 10° SSW
Cosmos 1470 Rocket 3.5 06:08:54 10° N 06:13:15 87° W 06:17:35 10° S
Cosmos 1908 3.3 06:11:40 10° SSW 06:15:26 55° WNW 06:19:13 10° N
COSMO-SKYMED 1 4.5 06:14:39 10° WSW 06:15:53 11° W 06:16:07 11° W
CZ-2C R/B 2.2 06:11:34 10° N 06:16:08 66° WNW 06:20:39 10° SSW
CSL-04 Rocket 4.0 06:12:11 10° N 06:17:07 40° WNW 06:21:59 10° SW
IDEFIX/ARIANE 42P 2.6 06:12:07 10° N 06:17:22 69° WNW 06:22:37 10° SSW
Alouette 2 Rocket 3.7 06:17:01 10° N 06:20:35 63° ENE 06:24:25 10° SSE
CZ-4 R/B 1.6 06:16:50 10° N 06:20:46 49° WNW 06:24:45 10° SSW
Ariane Rocket 3.8 06:16:26 10° N 06:20:51 30° WNW 06:25:15 10° WSW
TELKOM 3 2.9 06:21:15 10° W 06:23:38 58° NNW 06:25:44 10° ENE
EP 2 4.2 06:22:13 10° SW 06:24:48 68° NW 06:27:43 10° NE
Meteor 1-29 3.0 06:24:28 10° S 06:27:55 61° WSW 06:31:25 10° NNW
Cosmos 2228 Rocket 3.1 06:24:02 10° SSW 06:28:24 58° WNW 06:32:46 10° N
Iridium 4 Rocket 3.1 06:24:13 10° N 06:28:31 90° SE 06:33:04 10° S
Cosmos 1726 2.6 06:25:26 10° S 06:29:05 66° E 06:32:46 10° NNE
Cosmos 1634 Rocket 4.1 06:25:39 10° S 06:31:57 87° W 06:38:16 10° N
Meteor 2-2 Rocket 4.3 06:26:14 10° SSW 06:32:05 85° W 06:37:51 10° N
COSMOS 2441 4.3 06:27:47 10° NNE 06:32:36 81° WNW 06:37:23 10° SSW
SeaSat 1 4.4 06:32:58 10° NNW 06:34:02 11° NNW 06:35:07 10° NW
Cosmos 1300 2.9 06:32:04 10° S 06:35:52 79° E 06:39:43 10° NNE
AQUARIUS 4.4 06:32:01 10° N 06:36:21 47° WNW 06:40:39 10° SW
Cosmos 1898 Rocket 3.5 06:31:53 10° SSW 06:37:09 83° WNW 06:42:30 10° NNE
Sich 1 4.3 06:36:42 10° NW 06:40:00 21° W 06:43:15 10° SW
Cosmos 2150 Rocket 4.1 06:37:02 10° SSW 06:42:29 88° WNW 06:47:53 10° NNE
